Вернуться в каталог

STARLINK-5355

АктивенСвязьVLEO
NORAD 57139·PAYLOAD·🇺🇸 United States

Запущен Jun 23, 2023 с Cape Canaveral Space Force Station

Loading…

Ближайшие Пролёты (ближайшие 24 часа)

TLE

СвежийSource: CelesTrak SupGP

Эпоха: Sep 15, 2026, 02:39 UTC

1 57139C 23090AQ  26258.11090278 -.00010638  00000+0 -38525-3 0  2583
2 57139  43.0021 273.2855 0001146 285.4571 177.4079 15.27588146    16

Отслеживайте STARLINK-5355 в реальном времени с AllMySat

Download on the App Store